Home   Weather   Whitstable   Past weeks
Flag for United Kingdom

Past Weather in Whitstable, England, United Kingdom — Yesterday and Last 2 Weeks

Now
42 °F

Quite cool.


Feels Like: 40 °F
Forecast: 46 / 39 °F
Wind: 3 mph from Northeast

Location: Manston

Current Time: Nov 15, 2019 at 2:22:48 am

Latest Report: Nov 15, 2019 at 2:00 am


Visibility: 22 mi

Pressure: 29.61 "Hg

Humidity: 86%

Dew Point: 38 °F

Location of WhitstableLocation

Past Weather in Whitstable — Graph

°F

Whitstable Temperature Yesterday

Maximum temperature yesterday: 45 °F (at 1:00 am)
Minimum temperature yesterday: 40 °F (at 8:00 pm)
Average temperature yesterday: 42 °F

High & Low Weather Summary for the Past Weeks

 TemperatureHumidityPressure
High59 °F (Nov 2, 12:00 am)98% (Nov 1, 12:00 pm)30.14 "Hg (Nov 1, 12:00 pm)
Low35 °F (Nov 9, 7:00 am)63% (Nov 3, 2:00 pm)28.91 "Hg (Nov 2, 2:00 pm)
Average47 °F86%29.47 "Hg
* Reported Oct 31 3:00 am — Nov 15 1:00 am, Whitstable. Weather by CustomWeather, © 2019

Note: Actual official high and low records may vary slightly from our data, if they occured in-between our weather recording intervals... More about our weather records

Advertising

Whitstable Weather History for the Previous 24 Hours

Scroll right to see more
 ConditionsComfort  
Time TempWeatherWind HumidityBarometerVisibility
1:00 am
Fri, Nov 15
39 °FChilly.2 mph88%29.61 "Hg19 mi
12:00 am39 °FChilly.3 mph90%29.62 "Hg19 mi
11:00 pm
Thu, Nov 14
42 °FQuite cool.5 mph80%29.62 "Hg31 mi
10:00 pm42 °FQuite cool.8 mph83%29.62 "Hg31 mi
9:00 pm41 °FQuite cool.8 mph90%29.61 "Hg25 mi
8:00 pm40 °FQuite cool.10 mph83%29.59 "Hg25 mi
7:00 pm43 °FQuite cool.10 mph83%29.57 "Hg28 mi
6:00 pm40 °FQuite cool.5 mph94%29.55 "Hg28 mi
5:00 pm40 °FLight rain. Overcast.3 mph94%29.53 "Hg22 mi
4:00 pm41 °FRain. Cloudy.6 mph94%29.50 "Hg8 mi
3:00 pm41 °FRain. Cloudy.6 mph94%29.47 "Hg2 mi
2:00 pm42 °FRain. Cloudy.9 mph92%29.44 "Hg8 mi
1:00 pm43 °FLots of rain. Cloudy.5 mph93%29.41 "Hg4 mi
12:00 pm43 °FRain. Cloudy.13 mph91%29.41 "Hg6 mi
11:00 am41 °FRain. Cloudy.8 mph93%29.38 "Hg6 mi
10:00 am41 °FRain. Cloudy.8 mph93%29.38 "Hg2 mi
9:00 am40 °FRain. Cloudy.7 mph93%29.35 "Hg7 mi
8:00 am41 °FLight rain. Cloudy.9 mph94%29.32 "Hg13 mi
7:00 am41 °FRain. Overcast.6 mph96%29.26 "Hg10 mi
6:00 am41 °FRain. Overcast.8 mph93%29.26 "Hg4 mi
5:00 am44 °FRain. Overcast.26 mph90%29.23 "Hg6 mi
4:00 am44 °FLight rain. Overcast.28 mph88%29.21 "Hg6 mi
3:00 am44 °FRain. Overcast.25 mph89%29.23 "Hg6 mi
2:00 am45 °FLots of rain. Overcast.22 mph89%29.23 "Hg6 mi
Weather by CustomWeather, © 2019

See weather overview